Voltar ao catálogo

SL-12 R/B(2)

AtivoGEO
NORAD 23171·ROCKET BODY·🇷🇺 Russia

Lançado Jul 6, 1994 de Baikonur Cosmodrome

Loading…

TLE

AtualizadoSource: Space-Track

Época: Sep 11, 2026, 23:28 UTC

1 23171U 94038D   26254.97824882 -.00000046  00000-0  00000-0 0  9996
2 23171  14.2037 353.3187 0023445 154.0627 215.6621  0.99430945116886

Acompanhe SL-12 R/B(2) em tempo real com AllMySat

Download on the App Store